FW6905 Weather Reports


Display with metric or nautical units.
time (UTC)temp
F
wind
direction
speed
MPH
gust
MPH
rain 1hr
in
rain 24hr
in
rain mn
in
humidity
%
barometer
mb
20260904080006 76 122 2.0 6.0 0.00 0.00 0.00 60 1022.8
20260904075506 75 144 2.0 6.0 0.00 0.00 0.00 61 1022.8
20260904075006 75 138 3.0 4.0 0.00 0.00 0.00 62 1022.8
20260904074506 74 132 2.0 4.0 0.00 0.00 0.00 62 1022.8
20260904074006 74 90 2.0 4.0 0.00 0.00 0.00 64 1021.8
20260904073506 73 99 3.0 6.0 0.00 0.00 0.00 65 1021.8
20260904073006 73 128 3.0 7.0 0.00 0.00 0.00 65 1021.8
20260904072506 72 116 4.0 7.0 0.00 0.00 0.00 67 1022.8
20260904072006 72 87 3.0 7.0 0.00 0.00 0.00 68 1022.8
20260904071506 71 101 2.0 7.0 0.00 0.00 0.00 70 1022.8
20260904071006 71 118 4.0 7.0 0.00 0.00 0.00 72 1022.8
20260904070506 70 133 3.0 6.0 0.00 0.00 0.00 73 1022.8
20260904065506 69 112 5.0 7.0 0.00 0.00 0.00 77 1021.8
20260904065006 68 72 4.0 6.0 0.00 0.00 0.00 77 1021.8
20260904064506 68 58 3.0 4.0 0.00 0.00 0.00 79 1021.8
20260904064006 67 111 2.0 4.0 0.00 0.00 0.00 82 1022.8
20260904063506 67 128 2.0 4.0 0.00 0.00 0.00 82 1022.8
20260904063006 66 138 2.0 4.0 0.00 0.00 0.00 84 1022.8
20260904062505 66 157 1.0 4.0 0.00 0.00 0.00 85 1022.8
20260904062006 65 148 3.0 4.0 0.00 0.00 0.00 86 1022.8
20260904061006 65 126 0.0 3.0 0.00 0.00 0.00 86 1021.8
20260904060505 64 327 0.0 2.0 0.00 0.00 0.00 86 1021.8
20260904060006 64 264 0.0 2.0 0.00 0.00 0.00 86 1021.8
20260904055506 64 156 0.0 2.0 0.00 0.00 0.00 86 1021.8
20260904055006 64 135 0.0 2.0 0.00 0.00 0.00 86 1021.8
20260904054506 64 145 0.0 3.0 0.00 0.00 0.00 86 1021.8
20260904054006 64 163 1.0 3.0 0.00 0.00 0.00 87 1021.8
20260904053506 63 322 0.0 3.0 0.00 0.00 0.00 86 1021.8
20260904053006 63 155 2.0 3.0 0.00 0.00 0.00 86 1021.8
20260904052005 63 283 2.0 2.0 0.00 0.00 0.00 85 1021.8
20260904051506 63 251 1.0 2.0 0.00 0.00 0.00 85 1021.8
20260904050506 63 240 2.0 2.0 0.00 0.00 0.00 85 1020.8
20260904050006 63 248 0.0 2.0 0.00 0.00 0.00 85 1020.8
20260904045506 63 291 1.0 3.0 0.00 0.00 0.00 85 1021.8
20260904045006 63 249 2.0 3.0 0.00 0.00 0.00 85 1021.8
20260904044006 63 3 2.0 3.0 0.00 0.00 0.00 86 1021.8
20260904043506 63 135 2.0 3.0 0.00 0.00 0.00 85 1021.8
20260904043005 63 136 0.0 2.0 0.00 0.00 0.00 85 1021.8
20260904042506 63 237 0.0 2.0 0.00 0.00 0.00 85 1021.8
20260904041006 63 337 0.0 4.0 0.00 0.00 0.00 85 1021.8
20260904040506 63 82 1.0 4.0 0.00 0.00 0.00 84 1021.8
20260904035506 63 5 0.0 2.0 0.00 0.00 0.00 85 1020.8
20260904035005 63 63 0.0 2.0 0.00 0.00 0.00 84 1020.8
20260904034506 63 90 0.0 2.0 0.00 0.00 0.00 84 1020.8
20260904033506 63 0 0.0 0.0 0.00 0.00 0.00 84 1020.8
20260904033006 63 262 0.0 2.0 0.00 0.00 0.00 84 1020.8
20260904032006 63 268 0.0 2.0 0.00 0.00 0.00 84 1021.8
20260904031506 64 267 1.0 2.0 0.00 0.00 0.00 82 1021.8
20260904030505 64 203 0.0 2.0 0.00 0.00 0.00 82 1021.8
20260904030006 64 238 0.0 2.0 0.00 0.00 0.00 84 1021.8
20260904025506 64 298 1.0 2.0 0.00 0.00 0.00 84 1021.8
20260904025006 64 346 1.0 2.0 0.00 0.00 0.00 82 1021.8
20260904024505 64 89 0.0 2.0 0.00 0.00 0.00 82 1021.8
20260904024006 64 158 0.0 2.0 0.00 0.00 0.00 82 1020.8
20260904023505 64 293 1.0 2.0 0.00 0.00 0.00 82 1020.8
20260904023006 64 9 0.0 2.0 0.00 0.00 0.00 82 1020.8
20260904022505 64 27 0.0 2.0 0.00 0.00 0.00 82 1021.8
20260904022006 64 24 1.0 3.0 0.00 0.00 0.00 81 1021.8
20260904021505 64 22 1.0 3.0 0.00 0.00 0.00 81 1021.8
20260904021006 64 182 0.0 2.0 0.00 0.00 0.00 81 1020.8
20260904020505 64 215 0.0 2.0 0.00 0.00 0.00 82 1020.8
20260904015506 64 258 1.0 3.0 0.00 0.00 0.00 81 1021.8
20260904015006 65 308 1.0 3.0 0.00 0.00 0.00 81 1021.8
20260904014005 65 87 0.0 2.0 0.00 0.00 0.00 81 1020.8
20260904013506 65 45 0.0 3.0 0.00 0.00 0.00 81 1020.8
20260904013005 64 55 2.0 4.0 0.00 0.00 0.00 81 1020.8
20260904012006 64 157 1.0 3.0 0.00 0.00 0.00 81 1021.8
20260904011505 64 229 0.0 3.0 0.00 0.00 0.00 81 1021.8
20260904011006 64 307 2.0 3.0 0.00 0.00 0.00 82 1021.8
20260904010505 64 326 1.0 2.0 0.00 0.00 0.00 80 1021.8
20260904010006 64 337 0.0 2.0 0.00 0.00 0.00 80 1021.8
20260904005505 65 340 0.0 2.0 0.00 0.00 0.00 80 1021.8
20260904005006 65 2 1.0 2.0 0.00 0.00 0.00 80 1021.8
20260904004506 65 13 1.0 2.0 0.00 0.00 0.00 80 1021.8
20260904004005 65 32 0.0 2.0 0.00 0.00 0.00 80 1021.8
20260904003506 65 78 1.0 2.0 0.00 0.00 0.00 79 1021.8
20260904003005 65 112 1.0 2.0 0.00 0.00 0.00 79 1021.8
20260904002506 65 0 0.0 0.0 0.00 0.00 0.00 80 1021.8
20260904002005 65 112 0.0 2.0 0.00 0.00 0.00 79 1021.8
20260904001506 65 112 0.0 2.0 0.00 0.00 0.00 79 1021.8
20260904001005 65 112 0.0 1.0 0.00 0.00 0.00 79 1021.8
20260904000506 65 112 0.0 2.0 0.00 0.00 0.00 78 1021.8
20260904000006 65 109 1.0 2.0 0.00 0.00 0.00 78 1021.8
20260903235505 65 90 0.0 1.0 0.00 0.00 0.00 78 1021.8
20260903235006 65 0 0.0 0.0 0.00 0.00 0.00 78 1021.8
20260903234006 66 90 0.0 1.0 0.00 0.00 0.00 78 1021.8
20260903233505 66 90 0.0 2.0 0.00 0.00 0.00 78 1021.8
20260903233005 66 88 0.0 3.0 0.00 0.00 0.00 78 1021.8
20260903232506 66 69 2.0 3.0 0.00 0.00 0.00 77 1020.8
20260903231006 66 161 0.0 2.0 0.00 0.00 0.00 77 1021.8
20260903230007 66 270 0.0 1.0 0.00 0.00 0.00 77 1021.8
20260903225506 66 0 0.0 0.0 0.00 0.00 0.00 76 1021.8
20260903225006 66 225 0.0 2.0 0.00 0.00 0.00 76 1021.8
20260903224506 66 225 0.0 2.0 0.00 0.00 0.00 76 1021.8
20260903223506 66 106 1.0 2.0 0.00 0.00 0.00 76 1021.8
20260903223005 66 69 0.0 2.0 0.00 0.00 0.00 75 1021.8
20260903222506 66 91 1.0 3.0 0.00 0.00 0.00 75 1020.8
20260903222006 66 95 2.0 3.0 0.00 0.00 0.00 76 1020.8
20260903221005 66 112 0.0 1.0 0.00 0.00 0.00 75 1021.8
20260903220506 66 112 0.0 1.0 0.00 0.00 0.00 75 1021.8
20260903220012 66 0 0.0 0.0 0.00 0.00 0.00 75 1021.8
20260903215505 66 0 0.0 0.0 0.00 0.00 0.00 74 1021.8
20260903215006 66 111 0.0 2.0 0.00 0.00 0.00 74 1021.8
20260903214006 66 0 0.0 0.0 0.00 0.00 0.00 74 1021.8
20260903213505 66 23 0.0 1.0 0.00 0.00 0.00 73 1021.8
20260903213006 67 23 0.0 2.0 0.00 0.00 0.00 73 1021.8
20260903212506 67 23 0.0 2.0 0.00 0.00 0.00 72 1020.8
20260903212006 67 26 1.0 2.0 0.00 0.00 0.00 72 1020.8
20260903211505 67 41 1.0 2.0 0.00 0.00 0.00 72 1020.8
20260903211006 67 77 1.0 2.0 0.00 0.00 0.00 72 1021.8
20260903210505 67 83 1.0 2.0 0.00 0.00 0.00 71 1021.8
20260903205506 67 61 0.0 2.0 0.00 0.00 0.00 71 1021.8
20260903204006 68 51 0.0 2.0 0.00 0.00 0.00 69 1021.8
20260903203505 68 67 2.0 2.0 0.00 0.00 0.00 68 1021.8
20260903203006 68 68 1.0 2.0 0.00 0.00 0.00 69 1021.8
20260903202505 68 68 1.0 2.0 0.00 0.00 0.00 69 1021.8
20260903201506 69 99 2.0 2.0 0.00 0.00 0.00 67 1021.8
20260903201005 69 77 1.0 2.0 0.00 0.00 0.00 67 1021.8
20260903200506 69 90 1.0 3.0 0.00 0.00 0.00 67 1021.8
20260903200005 69 139 2.0 3.0 0.00 0.00 0.00 67 1021.8
20260903195505 69 151 2.0 2.0 0.00 0.00 0.00 68 1021.8
20260903194505 70 44 0.0 2.0 0.00 0.00 0.00 65 1021.8
20260903193506 70 58 0.0 2.0 0.00 0.00 0.00 64 1021.8
20260903193005 70 52 1.0 2.0 0.00 0.00 0.00 65 1021.8
20260903192506 70 65 0.0 2.0 0.00 0.00 0.00 63 1021.8
20260903191506 71 80 2.0 3.0 0.00 0.00 0.00 63 1021.8
20260903191006 71 90 2.0 2.0 0.00 0.00 0.00 63 1021.8
20260903190505 71 90 1.0 2.0 0.00 0.00 0.00 62 1021.8
20260903190006 72 78 0.0 3.0 0.00 0.00 0.00 61 1021.8
20260903185005 72 81 2.0 4.0 0.00 0.00 0.00 60 1020.8
20260903184005 72 84 2.0 4.0 0.00 0.00 0.00 60 1020.8
20260903183505 72 101 2.0 4.0 0.00 0.00 0.00 59 1020.8
20260903183005 73 99 0.0 4.0 0.00 0.00 0.00 60 1020.8
20260903182007 73 91 3.0 5.0 0.00 0.00 0.00 57 1020.8
20260903181505 74 71 2.0 5.0 0.00 0.00 0.00 57 1020.8
20260903181006 74 86 2.0 5.0 0.00 0.00 0.00 57 1020.8
20260903180006 75 87 1.0 5.0 0.00 0.00 0.00 55 1020.8
20260903175005 76 81 2.0 4.0 0.00 0.00 0.00 54 1020.8
20260903174506 76 133 0.0 4.0 0.00 0.00 0.00 54 1020.8
20260903174005 76 40 2.0 3.0 0.00 0.00 0.00 53 1019.8
20260903173506 77 103 2.0 4.0 0.00 0.00 0.00 51 1019.8
20260903173005 77 78 2.0 4.0 0.00 0.00 0.00 50 1019.8
20260903172506 78 71 3.0 4.0 0.00 0.00 0.00 50 1020.8
20260903172005 78 82 2.0 3.0 0.00 0.00 0.00 50 1020.8
20260903171006 80 270 0.0 2.0 0.00 0.00 0.00 49 1019.8
20260903170505 80 261 0.0 2.0 0.00 0.00 0.00 48 1019.8
20260903170005 80 279 2.0 2.0 0.00 0.00 0.00 48 1019.8
20260903165506 81 355 0.0 2.0 0.00 0.00 0.00 47 1019.8
20260903165005 81 46 0.0 2.0 0.00 0.00 0.00 47 1019.8
20260903164505 81 45 1.0 2.0 0.00 0.00 0.00 46 1019.8
20260903164006 82 18 0.0 2.0 0.00 0.00 0.00 46 1019.8
20260903163505 82 4 0.0 2.0 0.00 0.00 0.00 46 1019.8
20260903163005 82 4 1.0 3.0 0.00 0.00 0.00 45 1019.8
20260903162506 82 1 1.0 3.0 0.00 0.00 0.00 44 1019.8
20260903162005 83 41 0.0 2.0 0.00 0.00 0.00 44 1019.8
20260903161506 83 51 2.0 3.0 0.00 0.00 0.00 44 1019.8
20260903161005 83 51 1.0 3.0 0.00 0.00 0.00 43 1018.8
20260903160505 83 49 2.0 2.0 0.00 0.00 0.00 42 1018.8
20260903155505 84 145 1.0 2.0 0.00 0.00 0.00 43 1018.8
20260903154005 86 198 2.0 2.0 0.00 0.00 0.00 37 1019.8
20260903153505 86 197 0.0 2.0 0.00 0.00 0.00 36 1019.8
20260903153006 87 204 2.0 3.0 0.00 0.00 0.00 35 1019.8
20260903152505 87 231 2.0 5.0 0.00 0.00 0.00 35 1019.8
20260903152005 87 240 2.0 5.0 0.00 0.00 0.00 34 1019.8
20260903151505 88 239 2.0 4.0 0.00 0.00 0.00 34 1019.8
20260903151005 88 253 2.0 4.0 0.00 0.00 0.00 33 1019.8
20260903150505 88 246 2.0 5.0 0.00 0.00 0.00 33 1019.8
20260903150005 88 238 3.0 5.0 0.00 0.00 0.00 32 1019.8
20260903145005 88 253 3.0 6.0 0.00 0.00 0.00 32 1019.8
20260903144506 88 231 4.0 6.0 0.00 0.00 0.00 31 1019.8
20260903143505 88 197 2.0 7.0 0.00 0.00 0.00 31 1019.8
20260903142505 89 190 4.0 7.0 0.00 0.00 0.00 30 1018.8
20260903142006 89 270 4.0 6.0 0.00 0.00 0.00 32 1018.8
20260903140505 89 285 2.0 4.0 0.00 0.00 0.00 30 1018.8
20260903140005 89 262 2.0 5.0 0.00 0.00 0.00 30 1018.8
20260903133505 89 297 2.0 6.0 0.00 0.00 0.00 30 1019.8
20260903133005 89 288 1.0 7.0 0.00 0.00 0.00 30 1019.8
20260903132505 90 257 4.0 7.0 0.00 0.00 0.00 30 1019.8
20260903132005 90 262 2.0 6.0 0.00 0.00 0.00 30 1019.8
20260903131505 90 294 4.0 6.0 0.00 0.00 0.00 30 1019.8
20260903130005 90 256 2.0 5.0 0.00 0.00 0.00 29 1018.8
20260903125005 91 288 2.0 6.0 0.00 0.00 0.00 30 1019.8
20260903124005 91 231 4.0 5.0 0.00 0.00 0.00 31 1019.8
20260903123505 91 174 2.0 5.0 0.00 0.00 0.00 30 1019.8
20260903123005 91 152 2.0 5.0 0.00 0.00 0.00 30 1019.8
20260903122006 91 224 1.0 4.0 0.00 0.00 0.00 31 1020.8
20260903121505 91 140 2.0 4.0 0.00 0.00 0.00 32 1020.8
20260903121005 91 142 3.0 4.0 0.00 0.00 0.00 31 1020.8
20260903120505 91 133 3.0 5.0 0.00 0.00 0.00 31 1020.8
20260903120005 91 109 4.0 5.0 0.00 0.00 0.00 31 1020.8
20260903115006 90 133 3.0 4.0 0.00 0.00 0.00 30 1020.8
20260903114505 90 169 2.0 5.0 0.00 0.00 0.00 30 1020.8
20260903114006 90 171 2.0 7.0 0.00 0.00 0.00 30 1020.8
20260903113505 90 142 4.0 7.0 0.00 0.00 0.00 30 1020.8
20260903113005 90 77 2.0 6.0 0.00 0.00 0.00 30 1020.8
20260903112505 90 78 4.0 6.0 0.00 0.00 0.00 30 1020.8
20260903112005 90 76 3.0 6.0 0.00 0.00 0.00 31 1020.8
20260903111505 90 74 5.0 8.0 0.00 0.00 0.00 30 1020.8
20260903111005 90 87 2.0 8.0 0.00 0.00 0.00 30 1020.8
20260903110505 90 133 2.0 4.0 0.00 0.00 0.00 32 1020.8
20260903110005 90 151 2.0 4.0 0.00 0.00 0.00 32 1020.8
20260903105505 90 187 2.0 4.0 0.00 0.00 0.00 33 1020.8
20260903105005 89 220 2.0 4.0 0.00 0.00 0.00 34 1020.8
20260903104505 89 183 3.0 4.0 0.00 0.00 0.00 33 1020.8
20260903104005 89 117 2.0 5.0 0.00 0.00 0.00 33 1020.8
20260903102505 88 86 3.0 5.0 0.00 0.00 0.00 35 1021.8
20260903102005 88 92 4.0 4.0 0.00 0.00 0.00 35 1021.8
20260903101505 88 75 2.0 6.0 0.00 0.00 0.00 35 1021.8
20260903101005 87 64 2.0 6.0 0.00 0.00 0.00 36 1021.8
20260903100005 87 65 6.0 8.0 0.00 0.00 0.00 37 1021.8
20260903095505 87 55 3.0 8.0 0.00 0.00 0.00 38 1021.8
20260903094505 86 59 2.0 6.0 0.00 0.00 0.00 39 1021.8
20260903094005 86 62 3.0 7.0 0.00 0.00 0.00 40 1021.8
20260903093505 85 65 4.0 7.0 0.00 0.00 0.00 41 1021.8
20260903092505 85 117 2.0 9.0 0.00 0.00 0.00 45 1021.8
20260903092005 85 122 4.0 9.0 0.00 0.00 0.00 46 1021.8
20260903091505 84 123 4.0 9.0 0.00 0.00 0.00 47 1021.8
20260903091006 84 121 4.0 9.0 0.00 0.00 0.00 48 1021.8
20260903090505 83 110 5.0 8.0 0.00 0.00 0.00 48 1021.8
20260903090005 83 108 6.0 9.0 0.00 0.00 0.00 49 1021.8
20260903085505 82 114 6.0 9.0 0.00 0.00 0.00 50 1021.8
20260903085005 82 114 4.0 7.0 0.00 0.00 0.00 50 1021.8
20260903084506 81 115 4.0 8.0 0.00 0.00 0.00 51 1021.8
20260903083505 81 124 7.0 9.0 0.00 0.00 0.00 51 1021.8
20260903082505 80 122 6.0 9.0 0.00 0.00 0.00 54 1021.8
20260903082005 79 120 5.0 8.0 0.00 0.00 0.00 54 1021.8
20260903081505 79 120 5.0 9.0 0.00 0.00 0.00 54 1021.8
20260903081005 78 130 4.0 9.0 0.00 0.00 0.00 55 1021.8
20260903080505 78 129 6.0 8.0 0.00 0.00 0.00 55 1021.8